STARLINK-34392, 64451

Orbit data source: Space-Track

STARLINK-34392, 64451 is a payload satellite owned by SpaceX/Seattle (US) in LEO that was launched on Wed, 18 Jun 2025 UTC via an FALCON 9 launch vehicle from the Air Force Eastern Test Range (AFETR). Payload-class satellites include a variety of spacecraft equipped with specific instruments for various scientific and technological missions. These include communications satellites like Starlink; space stations such as the ISS; scientific satellites like the Hubble; Earth observation satellites from companies like Planet Labs, Umbra, and HawkEye 360; GPS; miniature CubeSats for education and research; and military/defense satellites.

Loading next visibility...
Identifier
64451, 2025-130P
Orbit
LEO
Country
Flag of USUS
Related business
Manufacturer
SpaceX/Seattle
Mission
Operational Commercial Communications
Bus & Motor
STARLINK V2MO, Unknown motor
Mass
575 kg wet, ~530 kg dry
Launch date (UTC)
2025-06-18 (1 year ago)
Launch vehicle
FALCON 9
Launch site
Air Force Eastern Test Range (AFETR)
Object type
Payload
Rocket body
Debris
Shape & HBR
Box + 2 Pan, 17.7 m
Radar Cross Section
36.964 m², Large (>1 m²)

Expand to show TLE details & history
Last TLE update: 22 hours ago

TLE from 22 hours ago
0 STARLINK-34392
1 64451U 25130P   26170.93739898  .00019648  00000-0  67354-3 0  9999
2 64451  53.1598 333.8873 0001163  89.0878 271.0256 15.30209387 56359
Epoch: 2026-06-19T22:29Z
TLE epoch observation values (Epoch: 2026-06-19T22:29:51.271Z)
Latitude
-0.00004°
Longitude
88.26443°
Altitude
476.073 km
Speed
7.629 km/s
True Right ascension
22h 15m 32s
True Declination
0° 00' 00"
Sunlit
Object was in full shadow at epoch
Visualization orbit readout
Latitude
Unknown
Longitude
Unknown
Altitude
Unknown
Speed
Unknown
Apparent Right ascension
Unknown
Apparent Declination
Unknown
Sunlit
N/A
Visualization observer readout
Local Sidereal Time
07:11:41
Azimuth
Unknown
Elevation
Unknown
Doppler factor
Unknown
Orbital elements
Apogee altitude
476.241 km
Perigee altitude
474.646 km
Semi-major axis
6,853.581 km
Eccentricity
0.00012
Inclination
53.1598°
RAAN
333.8873°
Arg. of periapsis
89.0878°
True anomaly
271.01228°
Mean anomaly
271.0256°
Eccentric anomaly
271.01894°
Mean motion
3.82531 °/min
Orbital period
94.11 mins
BSTAR
0.00067354
Loading maneuver chart data...
Computing Atmospheric mass density...
Loading historical data...
Loading historical data...
Loading historical data...
Loading historical data...
Loading historical data...
Loading historical data...
Loading historical data...

Documentation

Showing up to 5 results
|